This is the latest recevied weather packets stored in our database for station/object NK2J. If no packets are shown the sender has not sent any weather packets the latest 1 day(s).
| Time | Temp. | Humidity | Pressure | Rain* | Wind** | Luminosity | Snow |
|---|---|---|---|---|---|---|---|
| 1778034264 | 22.22° C | 27% | 1012.7 hPa | 0 mm | 0.89 m/s, 69° | 0 W/m² | - |
| 1778033962 | 22.22° C | 27% | 1012.4 hPa | 0 mm | 1.79 m/s, 97° | 1 W/m² | - |
| 1778033659 | 22.78° C | 28% | 1012.4 hPa | 0 mm | 2.68 m/s, 102° | 2 W/m² | - |
| 1778033356 | 22.78° C | 27% | 1012.2 hPa | 0 mm | 1.79 m/s, 144° | 4 W/m² | - |
| 1778033054 | 22.78° C | 27% | 1012.2 hPa | 0 mm | 0 m/s | 6 W/m² | - |
| 1778032751 | 23.33° C | 27% | 1012.1 hPa | 0 mm | 3.58 m/s, 112° | 9 W/m² | - |
| 1778032448 | 23.33° C | 26% | 1012 hPa | 0 mm | 2.68 m/s, 105° | 13 W/m² | - |
| 1778032145 | 22.78° C | 27% | 1011.9 hPa | 0 mm | 2.68 m/s, 110° | 16 W/m² | - |
| 1778031842 | 22.78° C | 27% | 1012 hPa | 0 mm | 2.68 m/s, 125° | 19 W/m² | - |
| 1778031539 | 23.33° C | 27% | 1011.9 hPa | 0 mm | 1.34 m/s, 99° | 21 W/m² | - |
| 1778031237 | 23.33° C | 27% | 1012.1 hPa | 0 mm | 0.89 m/s, 114° | 26 W/m² | - |
| 1778030932 | 23.33° C | 27% | 1011.9 hPa | 0 mm | 0.45 m/s, 46° | 29 W/m² | - |
| 1778030629 | 23.33° C | 27% | 1011.9 hPa | 0 mm | 0.89 m/s, 62° | 31 W/m² | - |
| 1778030326 | 23.33° C | 27% | 1011.7 hPa | 0 mm | 0 m/s | 33 W/m² | - |
| 1778030023 | 23.33° C | 27% | 1011.8 hPa | 0 mm | 2.68 m/s, 117° | 38 W/m² | - |
| 1778029720 | 23.33° C | 27% | 1011.7 hPa | 0 mm | 2.68 m/s, 116° | 54 W/m² | - |
| 1778029419 | 23.89° C | 26% | 1011.8 hPa | 0 mm | 3.58 m/s, 131° | 56 W/m² | - |
| 1778029115 | 23.33° C | 26% | 1011.7 hPa | 0 mm | 2.68 m/s, 111° | 53 W/m² | - |
| 1778028812 | 23.33° C | 26% | 1011.6 hPa | 0 mm | 1.34 m/s, 58° | 55 W/m² | - |
| 1778028508 | 23.89° C | 27% | 1011.6 hPa | 0 mm | 1.79 m/s, 69° | 54 W/m² | - |
| 1778028206 | 23.89° C | 27% | 1011.6 hPa | 0 mm | 0.89 m/s, 81° | 74 W/m² | - |
| 1778027902 | 23.89° C | 26% | 1011.7 hPa | 0 mm | 0.89 m/s, 44° | 164 W/m² | - |
| 1778027598 | 24.44° C | 25% | 1011.6 hPa | 0 mm | 1.34 m/s, 57° | 198 W/m² | - |
| 1778027294 | 24.44° C | 27% | 1011.5 hPa | 0 mm | 1.34 m/s, 107° | 210 W/m² | - |
| 1778026991 | 24.44° C | 26% | 1011.5 hPa | 0 mm | 1.79 m/s, 118° | 222 W/m² | - |
* Rain latest hour (hover to see other rain measurements)
** Current wind speed in m/s (hover to see current wind gust speed)